N515CP KGNV-KORL

Flight info

Callsign N515CP
Flight time 0h 40m
Altitude 7000
Route OCF V157 OCF V159 ORL
Aircraft BE36/L-VGD/C

Departure

Time 2026-05-04 23:31
Airport Gainesville Regional Airport (KGNV)

Arrival

Time 2026-05-05 00:11
Airport Orlando Executive Airport (KORL)
Time Latitude Longitude Altitude Speed Heading
2026-05-04 23:19 29.69556 -82.27700 140 ft 0 kts 318°
2026-05-04 23:26 29.69557 -82.27700 140 ft 0 kts 318°
2026-05-04 23:26 29.69561 -82.27730 141 ft 10 kts 233°
2026-05-04 23:26 29.69512 -82.27790 142 ft 7 kts 228°
2026-05-04 23:27 29.69455 -82.27767 139 ft 14 kts 162°
2026-05-04 23:27 29.69382 -82.27855 140 ft 16 kts 239°
2026-05-04 23:27 29.69329 -82.27965 142 ft 15 kts 243°
2026-05-04 23:27 29.69282 -82.28061 147 ft 12 kts 243°
2026-05-04 23:28 29.69241 -82.28139 149 ft 11 kts 219°
2026-05-04 23:28 29.69177 -82.28162 148 ft 10 kts 193°
2026-05-04 23:28 29.69140 -82.28162 147 ft 0 kts 153°
2026-05-04 23:29 29.69139 -82.28162 147 ft 2 kts 153°
2026-05-04 23:29 29.69074 -82.28113 146 ft 18 kts 128°
2026-05-04 23:29 29.69053 -82.28040 148 ft 0 kts 103°
2026-05-04 23:30 29.69050 -82.28024 149 ft 17 kts 102°
2026-05-04 23:30 29.69004 -82.27773 161 ft 76 kts 102°
2026-05-04 23:31 29.68870 -82.27024 459 ft 110 kts 101°
2026-05-04 23:31 29.68745 -82.26112 966 ft 118 kts 99°
2026-05-04 23:31 29.68665 -82.25353 1398 ft 121 kts 98°
2026-05-04 23:31 29.68579 -82.24401 1853 ft 120 kts 95°
2026-05-04 23:32 29.68509 -82.23437 2181 ft 124 kts 96°
2026-05-04 23:32 29.68400 -82.22453 2510 ft 128 kts 96°
2026-05-04 23:32 29.68282 -82.21383 2681 ft 137 kts 98°
2026-05-04 23:32 29.68169 -82.20291 2921 ft 138 kts 98°
2026-05-04 23:33 29.68067 -82.19208 3253 ft 134 kts 98°
2026-05-04 23:33 29.67922 -82.18173 3623 ft 129 kts 113°
2026-05-04 23:33 29.67307 -82.17469 3994 ft 128 kts 157°
2026-05-04 23:33 29.66426 -82.17430 4364 ft 129 kts 188°
2026-05-04 23:34 29.65537 -82.17566 4749 ft 129 kts 186°
2026-05-04 23:34 29.64644 -82.17659 5133 ft 129 kts 187°
2026-05-04 23:34 29.63751 -82.17751 5514 ft 129 kts 187°
2026-05-04 23:34 29.62947 -82.17824 5855 ft 130 kts 187°
2026-05-04 23:35 29.62278 -82.17872 6140 ft 130 kts 187°
2026-05-04 23:35 29.61374 -82.17924 6518 ft 130 kts 187°
2026-05-04 23:35 29.60446 -82.17970 6780 ft 139 kts 187°
2026-05-04 23:35 29.59471 -82.18029 6897 ft 152 kts 187°
2026-05-04 23:36 29.58413 -82.18110 6961 ft 163 kts 187°
2026-05-04 23:36 29.57335 -82.18189 6989 ft 170 kts 187°
2026-05-04 23:36 29.56147 -82.18290 6999 ft 172 kts 187°
2026-05-04 23:36 29.54950 -82.18388 7001 ft 173 kts 188°
2026-05-04 23:37 29.53789 -82.18472 7001 ft 173 kts 187°
2026-05-04 23:37 29.52668 -82.18557 7008 ft 173 kts 187°
2026-05-04 23:37 29.51623 -82.18633 7008 ft 173 kts 188°
2026-05-04 23:37 29.50776 -82.18823 7006 ft 170 kts 200°
2026-05-04 23:38 29.49664 -82.19280 7007 ft 170 kts 204°
2026-05-04 23:38 29.48547 -82.19726 7005 ft 170 kts 200°
2026-05-04 23:38 29.47397 -82.20084 7003 ft 172 kts 195°
2026-05-04 23:38 29.46221 -82.20348 7009 ft 173 kts 193°
2026-05-04 23:39 29.45031 -82.20542 7008 ft 173 kts 189°
2026-05-04 23:39 29.43829 -82.20686 7009 ft 173 kts 189°
2026-05-04 23:39 29.42676 -82.20797 7006 ft 173 kts 188°
2026-05-04 23:39 29.41497 -82.20895 7003 ft 174 kts 187°
2026-05-04 23:40 29.40294 -82.20988 7004 ft 174 kts 187°
2026-05-04 23:40 29.39087 -82.21077 7004 ft 174 kts 187°
2026-05-04 23:40 29.37879 -82.21166 7004 ft 174 kts 187°
2026-05-04 23:40 29.36671 -82.21252 7004 ft 174 kts 187°
2026-05-04 23:41 29.35461 -82.21340 7004 ft 174 kts 187°
2026-05-04 23:41 29.34255 -82.21427 7003 ft 174 kts 188°
2026-05-04 23:41 29.33049 -82.21515 7008 ft 174 kts 187°
2026-05-04 23:41 29.31842 -82.21603 7007 ft 174 kts 187°
2026-05-04 23:42 29.30632 -82.21692 7008 ft 174 kts 186°
2026-05-04 23:42 29.29419 -82.21780 7007 ft 175 kts 186°
2026-05-04 23:42 29.28204 -82.21868 7006 ft 175 kts 187°
2026-05-04 23:42 29.26990 -82.21957 7006 ft 175 kts 187°
2026-05-04 23:43 29.25780 -82.22044 7007 ft 174 kts 187°
2026-05-04 23:43 29.24572 -82.22132 7002 ft 174 kts 187°
2026-05-04 23:43 29.23384 -82.22219 6998 ft 174 kts 187°
2026-05-04 23:43 29.22180 -82.22306 6996 ft 173 kts 187°
2026-05-04 23:44 29.20976 -82.22394 6993 ft 174 kts 186°
2026-05-04 23:44 29.19769 -82.22482 6995 ft 173 kts 187°
2026-05-04 23:44 29.18566 -82.22523 6997 ft 175 kts 178°
2026-05-04 23:44 29.17422 -82.22036 6998 ft 181 kts 148°
2026-05-04 23:45 29.16594 -82.20942 6996 ft 183 kts 129°
2026-05-04 23:45 29.15809 -82.19796 6998 ft 183 kts 133°
2026-05-04 23:45 29.14995 -82.18671 7003 ft 184 kts 133°
2026-05-04 23:45 29.14180 -82.17540 7005 ft 185 kts 134°
2026-05-04 23:46 29.13368 -82.16402 7007 ft 185 kts 133°
2026-05-04 23:46 29.12558 -82.15258 7005 ft 185 kts 132°
2026-05-04 23:46 29.11749 -82.14114 7003 ft 185 kts 131°
2026-05-04 23:46 29.10941 -82.12971 7004 ft 185 kts 131°
2026-05-04 23:47 29.10135 -82.11829 7005 ft 185 kts 132°
2026-05-04 23:47 29.09326 -82.10685 7005 ft 185 kts 132°
2026-05-04 23:47 29.08517 -82.09538 7003 ft 185 kts 133°
2026-05-04 23:47 29.07707 -82.08393 7003 ft 185 kts 133°
2026-05-04 23:48 29.06897 -82.07247 7005 ft 185 kts 133°
2026-05-04 23:48 29.06085 -82.06100 7007 ft 185 kts 133°
2026-05-04 23:48 29.05274 -82.04955 7007 ft 185 kts 133°
2026-05-04 23:48 29.04541 -82.03917 7007 ft 185 kts 132°
2026-05-04 23:49 29.03737 -82.02780 7012 ft 186 kts 133°
2026-05-04 23:49 29.02922 -82.01632 7014 ft 186 kts 133°
2026-05-04 23:49 29.02106 -82.00482 7009 ft 186 kts 132°
2026-05-04 23:49 29.01294 -81.99331 7006 ft 186 kts 133°
2026-05-04 23:50 29.00484 -81.98188 6997 ft 184 kts 133°
2026-05-04 23:50 28.99681 -81.97053 7003 ft 183 kts 133°
2026-05-04 23:50 28.98880 -81.95927 7002 ft 183 kts 132°
2026-05-04 23:50 28.98082 -81.94799 7006 ft 183 kts 132°
2026-05-04 23:51 28.97281 -81.93672 7004 ft 183 kts 133°
2026-05-04 23:51 28.96476 -81.92539 7001 ft 183 kts 133°
2026-05-04 23:51 28.95674 -81.91408 7000 ft 183 kts 132°
2026-05-04 23:51 28.94870 -81.90277 6999 ft 183 kts 132°
2026-05-04 23:52 28.94071 -81.89148 6991 ft 183 kts 132°
2026-05-04 23:52 28.93270 -81.88020 6988 ft 183 kts 132°
2026-05-04 23:52 28.92469 -81.86892 6986 ft 182 kts 132°
2026-05-04 23:52 28.91669 -81.85765 6906 ft 183 kts 132°
2026-05-04 23:53 28.90865 -81.84639 6773 ft 183 kts 133°
2026-05-04 23:53 28.90066 -81.83516 6634 ft 182 kts 133°
2026-05-04 23:53 28.89273 -81.82398 6492 ft 181 kts 132°
2026-05-04 23:53 28.88491 -81.81299 6347 ft 180 kts 132°
2026-05-04 23:54 28.87689 -81.80175 6187 ft 180 kts 132°
2026-05-04 23:54 28.86918 -81.79087 6019 ft 178 kts 131°
2026-05-04 23:54 28.86128 -81.77975 5855 ft 177 kts 133°
2026-05-04 23:54 28.85354 -81.76888 5692 ft 176 kts 133°
2026-05-04 23:55 28.84586 -81.75810 5534 ft 174 kts 133°
2026-05-04 23:55 28.83732 -81.74891 5392 ft 170 kts 150°
2026-05-04 23:55 28.81875 -81.73582 5129 ft 169 kts 152°
2026-05-04 23:56 28.80890 -81.72932 4964 ft 170 kts 152°
2026-05-04 23:56 28.79968 -81.72338 4810 ft 170 kts 152°
2026-05-04 23:56 28.79003 -81.71728 4640 ft 168 kts 152°
2026-05-04 23:56 28.77956 -81.71308 4468 ft 166 kts 170°
2026-05-04 23:57 28.76859 -81.71113 4299 ft 165 kts 171°
2026-05-04 23:57 28.75720 -81.70947 4132 ft 165 kts 171°
2026-05-04 23:57 28.74582 -81.70803 3964 ft 165 kts 172°
2026-05-04 23:57 28.73441 -81.70666 3797 ft 165 kts 172°
2026-05-04 23:58 28.72297 -81.70544 3625 ft 165 kts 172°
2026-05-04 23:58 28.71154 -81.70444 3445 ft 164 kts 172°
2026-05-04 23:58 28.70015 -81.70345 3284 ft 164 kts 172°
2026-05-04 23:58 28.68874 -81.70262 3131 ft 164 kts 172°
2026-05-04 23:59 28.67753 -81.70190 3056 ft 159 kts 172°
2026-05-04 23:59 28.66683 -81.70026 3026 ft 152 kts 160°
2026-05-04 23:59 28.65683 -81.69677 3008 ft 149 kts 157°
2026-05-04 23:59 28.64716 -81.69296 3000 ft 147 kts 156°
2026-05-05 00:00 28.63725 -81.68895 3009 ft 155 kts 155°
2026-05-05 00:00 28.63380 -81.68755 3012 ft 156 kts 155°
2026-05-05 00:00 28.61649 -81.68036 3000 ft 161 kts 155°
2026-05-05 00:00 28.60597 -81.67597 2998 ft 162 kts 156°
2026-05-05 00:01 28.59541 -81.67142 3001 ft 163 kts 155°
2026-05-05 00:01 28.58480 -81.66688 2997 ft 163 kts 155°
2026-05-05 00:01 28.57420 -81.66234 2999 ft 163 kts 155°
2026-05-05 00:01 28.56358 -81.65781 2994 ft 164 kts 155°
2026-05-05 00:02 28.55292 -81.65332 3006 ft 162 kts 155°
2026-05-05 00:02 28.54282 -81.64927 3009 ft 148 kts 155°
2026-05-05 00:02 28.53351 -81.64534 2995 ft 137 kts 150°
2026-05-05 00:02 28.52512 -81.64075 2993 ft 132 kts 147°
2026-05-05 00:03 28.51692 -81.63589 2985 ft 133 kts 146°
2026-05-05 00:03 28.50880 -81.63088 2981 ft 132 kts 146°
2026-05-05 00:03 28.50167 -81.62631 2905 ft 138 kts 146°
2026-05-05 00:03 28.49419 -81.61934 2707 ft 143 kts 116°
2026-05-05 00:04 28.49149 -81.60839 2512 ft 146 kts 101°
2026-05-05 00:04 28.48973 -81.59706 2324 ft 148 kts 98°
2026-05-05 00:04 28.48833 -81.58565 2199 ft 145 kts 97°
2026-05-05 00:04 28.48709 -81.57444 2148 ft 142 kts 97°
2026-05-05 00:05 28.48587 -81.56348 2125 ft 138 kts 96°
2026-05-05 00:05 28.48465 -81.55277 2121 ft 134 kts 96°
2026-05-05 00:05 28.48347 -81.54232 2114 ft 129 kts 97°
2026-05-05 00:05 28.48244 -81.53239 2098 ft 124 kts 96°
2026-05-05 00:06 28.48147 -81.52274 2090 ft 121 kts 96°
2026-05-05 00:06 28.48066 -81.51473 2084 ft 119 kts 96°
2026-05-05 00:06 28.47973 -81.50547 2079 ft 117 kts 96°
2026-05-05 00:06 28.48082 -81.49659 2071 ft 118 kts 69°
2026-05-05 00:07 28.48450 -81.48814 2040 ft 123 kts 62°
2026-05-05 00:07 28.48890 -81.47981 2015 ft 123 kts 66°
2026-05-05 00:07 28.49281 -81.47108 2005 ft 126 kts 67°
2026-05-05 00:07 28.49673 -81.46203 2007 ft 129 kts 69°
2026-05-05 00:08 28.50002 -81.45245 1984 ft 131 kts 71°
2026-05-05 00:08 28.50351 -81.44291 1947 ft 130 kts 70°
2026-05-05 00:08 28.50713 -81.43347 1829 ft 129 kts 70°
2026-05-05 00:08 28.51051 -81.42402 1702 ft 129 kts 72°
2026-05-05 00:09 28.51421 -81.41453 1589 ft 132 kts 69°
2026-05-05 00:09 28.51777 -81.40547 1466 ft 115 kts 69°
2026-05-05 00:09 28.52071 -81.39749 1319 ft 106 kts 70°
2026-05-05 00:09 28.52365 -81.38981 1173 ft 106 kts 68°
2026-05-05 00:10 28.52662 -81.38220 1061 ft 104 kts 68°
2026-05-05 00:10 28.52945 -81.37466 943 ft 103 kts 70°
2026-05-05 00:10 28.53215 -81.36728 791 ft 99 kts 70°
2026-05-05 00:10 28.53495 -81.35992 643 ft 103 kts 68°
2026-05-05 00:11 28.53777 -81.35244 470 ft 102 kts 69°
2026-05-05 00:11 28.54063 -81.34507 288 ft 101 kts 71°
2026-05-05 00:11 28.54326 -81.33824 115 ft 83 kts 67°
2026-05-05 00:11 28.54499 -81.33361 114 ft 37 kts 69°
2026-05-05 00:12 28.54587 -81.33159 116 ft 16 kts 31°
2026-05-05 00:12 28.54681 -81.33154 115 ft 7 kts 352°
2026-05-05 00:12 28.54688 -81.33156 115 ft 0 kts 350°
2026-05-05 00:13 28.54701 -81.33158 114 ft 0 kts 349°
2026-05-05 00:14 28.54704 -81.33159 114 ft 3 kts 350°
2026-05-05 00:14 28.54719 -81.33225 114 ft 17 kts 263°
2026-05-05 00:14 28.54703 -81.33402 112 ft 26 kts 264°
2026-05-05 00:15 28.54687 -81.33572 113 ft 14 kts 265°
2026-05-05 00:15 28.54723 -81.33655 114 ft 13 kts 310°
2026-05-05 00:15 28.54792 -81.33707 114 ft 11 kts 320°
2026-05-05 00:15 28.54820 -81.33739 115 ft 0 kts 311°